sat.trackr.live / text

‹ back to catalog

SWAS

NORAD 25560 · 1998-071A

PAYLOAD ACTIVE UNKNOWN

§ Identity

Operator
Country
US
Launch date
1998-12-06
Launch site
WRAS
Launch vehicle
Mass (kg)
RCS (m²)
1.81

Purposes: science

External: N2YO · Heavens-Above · Gunter

§ Orbital elements

Epoch: 2026-09-19T21:15:15.485760Z

Period
95.36 min
Inclination
69.8974°
Eccentricity
0.0002909
Mean motion
15.10123112 rev/d
Perigee alt
533.8 km
Apogee alt
537.8 km
Semi-major
6,914.0 km
B*
1.4663e-4
RAAN
343.2151°
Arg perigee
125.3792°
Mean anomaly
234.7644°
Rev number
51,156

§ Raw data

SWAS1 25560U 98071A   26262.88559590  .00002291  00000+0  14663-3 0  99962 25560  69.8974 343.2151 0002909 125.3792 234.7644 15.10123112511566

JSON: /api/v1/satellites/25560 · /tle

For live sub-satellite position, see the globe view (requires WebGL).

§ Visibility from observer

Set your observer location to see the next 7 days of passes ≥ 10°. The values pass through the URL so the page stays shareable.

No JS? Fill the form by hand. The geolocation button needs JavaScript.